Regional Weather Roundup
Issued by NWS

Home | Current Version | Previous Version | Graphics & Text | Print | Product List | Glossary On
Versions: 1 2 3 4 5 6 7 8 9 10 11 12 13 14 15 16 17 18 19 20 21 22 23 24 25 26 27 28 29 30 31 32 33 34 35 36 37 38 39 40 41 42 43 44 45 46 47 48 49 50
000
ASUS45 KSLC 241010
RWRUT

UTAH REGIONAL WEATHER ROUNDUP
NATIONAL WEATHER SERVICE SALT LAKE CITY UT
400 AM MDT SUN MAY 24 2015

UTZ001>011-023>025-241100-

NORTHERN UTAH

CITY           SKY/WX    TMP DP  RH WIND       PRES   REMARKS
BRIGHAM CITY   MOCLDY    49  45  85 N7        29.97S
HILL AFB       PTCLDY    46  43  87 E12       29.96F
LOGAN          CLOUDY    46  43  89 N6        29.97S
OGDEN          PTCLDY    47  43  86 S8        29.95F
PROVO AIRPORT  MOCLDY    48  41  76 SE6       29.98S
SALT LAKE CITY MOCLDY    50  43  77 SE6       29.95F
VERNAL         CLOUDY    44  38  79 W3        29.96F
WENDOVER       PTCLDY    52  48  87 W3        29.96S
HEBER CITY     PTCLDY    37  36  93 CALM      30.00R
WEST JORDAN    CLEAR     45  41  87 SW3       29.97F

$$

UTZ012>022-026-027-241100-

SOUTHERN/CENTRAL UTAH

CITY           SKY/WX    TMP DP  RH WIND       PRES   REMARKS
BLANDING       CLOUDY    42  42  98 CALM      30.06S
BRYCE CANYON   CLOUDY    40  38  93 NW5       30.03R
CEDAR CITY     CLOUDY    46  42  86 SE5       29.97S
DELTA          CLEAR     41  40  95 NW3       29.98S
HANKSVILLE     CLEAR     45  43  93 CALM      29.98S
MILFORD        CLOUDY    48  45  89 S3        29.97S
MOAB/CYNLANDS  MOCLDY    46  41  82 CALM      29.95S
PRICE          CLEAR     39  33  79 N8        29.98S WCI  33
ST GEORGE      CLOUDY    57  50  77 N3        29.95R
KANAB          CLOUDY   N/A N/A N/A CALM      30.01S

$$

REGIONAL REPORTS     COLORADO/ARIZONA

CITY           SKY/WX    TMP DP  RH WIND       PRES   REMARKS
CRAIG, CO      CLOUDY    41  36  82 CALM      29.98F
GRAND JUNCTION CLOUDY    45  42  89 E8        29.96F
RIFLE          CLOUDY    44  40  85 CALM      29.97F
MONTROSE       CLOUDY    40  40 100 E3        30.02R
CORTEZ         LGT RAIN  44  42  93 CALM      30.00F
PAGE, AZ       RAIN      52  50  93 SE6       29.96F FOG
GRAND CANYON   CLOUDY    44  38  79 SW8       30.04S
KINGMAN        PTCLDY    52  38  58 S7        29.94S
FLAGSTAFF      CLEAR     35  31  85 CALM      30.06S

$$

REGIONAL REPORTS    NEVADA/IDAHO/WYOMING

CITY           SKY/WX    TMP DP  RH WIND       PRES   REMARKS
LAS VEGAS, NV  MOCLDY    70  43  37 S10       29.82S
ELY            CLOUDY    44  42  93 N6        30.02S
ELKO           CLOUDY    48  47  96 CALM      30.01S
POCATELLO, ID  CLEAR     44  44 100 N3        29.99R
BURLEY         FOG       44  43  96 S3        29.96F VSB 1
EVANSTON, WY   CLOUDY    38  37  97 SW6       30.01S WCI  33
ROCK SPRINGS   LGT RAIN  41  40  96 SW3       29.98F
KEMMERER       PTCLDY    36  34  93 N8        30.01S WCI  29

$$


USA.gov is the U.S. government's official web portal to all federal, state and local government web resources and services.